Location: Poughquag
(41.6090°N, 73.6820°W)
Time: 14:29:20
(UTC-05:00)

N. Korean satellite - Visible Passes

Search period start: 19 November 2017 00:00
Search period end: 29 November 2017 00:00
Orbit: 460 x 515 km, 97.2° (Epoch: 18 November)

Date Brightness Start Highest point End Pass type
(mag) Time Alt. Az. Time Alt. Az. Time Alt. Az.
19 Nov 8.7 06:14:30 10° NNE 06:17:57 34° E 06:21:24 10° SSE visible
19 Nov 8.2 18:24:21 10° SSW 18:27:33 34° W 18:30:50 10° NNW visible
20 Nov 9.8 05:51:43 10° NE 05:54:22 18° E 05:57:01 10° SE visible
20 Nov 6.6 18:00:32 10° S 18:04:02 75° WSW 18:07:36 10° NNW visible
21 Nov 6.6 17:37:12 10° SSE 17:40:35 51° ENE 17:44:04 10° N visible
22 Nov 7.5 17:14:16 10° SE 17:17:13 26° ENE 17:20:13 10° NNE visible
22 Nov 9.4 18:48:15 10° SW 18:50:44 18° W 18:53:16 10° NW visible
23 Nov 8.7 06:14:06 10° NNE 06:17:34 34° E 06:21:01 10° SSE visible
23 Nov 8.2 18:23:52 10° SSW 18:27:07 35° W 18:30:26 10° NNW visible
24 Nov 9.8 05:51:17 10° NE 05:53:57 18° E 05:56:37 10° SE visible
24 Nov 6.7 18:00:04 10° S 18:03:35 75° W 18:07:12 10° NNW visible
25 Nov 6.6 17:36:42 10° SSE 17:40:07 51° ENE 17:43:38 10° N visible
26 Nov 7.5 17:13:45 10° SE 17:16:44 26° ENE 17:19:47 10° NNE visible
26 Nov 9.4 18:47:43 10° SW 18:50:15 18° W 18:52:50 10° NW visible
27 Nov 8.7 06:13:39 10° NNE 06:17:07 34° E 06:20:34 10° SSE visible
27 Nov 8.2 18:23:20 10° SSW 18:26:38 35° W 18:30:00 10° NNW visible
28 Nov 9.8 05:50:49 10° NE 05:53:29 18° E 05:56:09 10° SE visible
28 Nov 6.7 17:59:32 10° S 18:03:04 76° W 18:06:43 10° NNW visible
